Location: STAR School
(35.3054°N, 111.2976°W)
Time: 05:47:09
(UTC-07:00)

A-11 Canister half - Visible Passes

Search period start: 21 May 2019 00:00
Search period end: 31 May 2019 00:00
Orbit: 1525 x 1684 km, 47.3° (Epoch: 20 May)

Date Brightness Start Highest point End Pass type
(mag) Time Alt. Az. Time Alt. Az. Time Alt. Az.
21 May 10.2 21:29:35 10° WNW 21:37:54 31° SW 21:43:42 18° S visible
22 May 10.2 21:07:50 10° WNW 21:16:18 33° SW 21:23:27 15° S visible
23 May 10.1 20:46:05 10° WNW 20:54:42 35° SW 21:03:15 11° S visible
24 May 10.1 20:24:22 10° WNW 20:33:06 37° SW 20:42:03 10° SSE visible
25 May 10.1 20:02:39 10° WNW 20:11:30 39° SW 20:20:35 10° SSE visible
26 May 10.1 19:40:57 10° WNW 19:49:54 42° SW 19:59:06 10° SSE visible
30 May 11.3 20:25:36 10° WSW 20:27:05 10° WSW 20:28:33 10° SW visible
